Location: Kearney
(40.6990°N, 99.0810°W)
Time: 15:56:53
(UTC-06:00)

Meteor 2-4 Rocket - Pass Details

Date: 18 December 2017
Orbit: 799 x 908 km, 81.2° (Epoch: 22 January)

Event Time Altitude Azimuth Distance (km) Brightness Sun altitude
Rises 18:19:41 0° 196° (SSW) 3,343 7.4 -12.6°
Reaches altitude 10° 18:22:07 10° 200° (SSW) 2,401 6.6 -13.0°
Maximum altitude 18:27:28 64° 281° (WNW) 892 4.1 -14.0°
Drops below altitude 10° 18:32:48 10° 3° (N) 2,384 5.8 -14.9°
Sets 18:35:12 0° 7° (N) 3,317 6.5 -15.4°
